CEB4872 RPMZ-RPVI

Flight info

Callsign CEB4872
Flight time 0h 48m
Altitude 29000
Route BURCO1W BURCO W3 PALGI TR5 PASDA
Aircraft A321/M-SDE3FGHIRWY/LB1

Departure

Time 2026-04-23 13:56
Airport Zamboanga International Airport (RPMZ)

Arrival

Time 2026-04-23 14:45
Airport Iloilo International Airport (RPVI)
Time Latitude Longitude Altitude Speed Heading
2026-04-23 13:37 6.92055 122.06184 69 ft 0 kts 155°
2026-04-23 13:50 6.92053 122.06186 70 ft 0 kts 144°
2026-04-23 13:50 6.92052 122.06188 69 ft 0 kts 111°
2026-04-23 13:50 6.92053 122.06191 70 ft 0 kts 67°
2026-04-23 13:50 6.92059 122.06195 70 ft 1 kts 31°
2026-04-23 13:51 6.92074 122.06203 70 ft 2 kts 31°
2026-04-23 13:51 6.92094 122.06216 70 ft 3 kts 31°
2026-04-23 13:51 6.92121 122.06232 70 ft 4 kts 31°
2026-04-23 13:51 6.92155 122.06248 70 ft 5 kts 12°
2026-04-23 13:52 6.92198 122.06255 70 ft 6 kts 20°
2026-04-23 13:52 6.92220 122.06294 70 ft 7 kts 88°
2026-04-23 13:52 6.92217 122.06348 70 ft 8 kts 94°
2026-04-23 13:52 6.92213 122.06410 69 ft 9 kts 93°
2026-04-23 13:53 6.92209 122.06479 69 ft 10 kts 94°
2026-04-23 13:53 6.92204 122.06552 69 ft 10 kts 94°
2026-04-23 13:53 6.92199 122.06629 69 ft 11 kts 93°
2026-04-23 13:53 6.92194 122.06711 69 ft 11 kts 93°
2026-04-23 13:54 6.92188 122.06795 69 ft 12 kts 95°
2026-04-23 13:54 6.92183 122.06882 69 ft 12 kts 94°
2026-04-23 13:54 6.92176 122.06972 68 ft 12 kts 94°
2026-04-23 13:54 6.92178 122.07051 68 ft 9 kts 72°
2026-04-23 13:55 6.92190 122.07089 68 ft 1 kts 108°
2026-04-23 13:55 6.92177 122.07085 68 ft 3 kts 235°
2026-04-23 13:55 6.92171 122.07056 68 ft 4 kts 271°
2026-04-23 13:55 6.92173 122.07019 68 ft 7 kts 272°
2026-04-23 13:56 6.92191 122.06724 69 ft 80 kts 274°
2026-04-23 13:56 6.92246 122.05921 71 ft 146 kts 272°
2026-04-23 13:56 6.92328 122.04797 476 ft 163 kts 275°
2026-04-23 13:56 6.92418 122.03690 1202 ft 157 kts 275°
2026-04-23 13:57 6.92508 122.02598 1737 ft 161 kts 276°
2026-04-23 13:57 6.92575 122.01463 2006 ft 168 kts 275°
2026-04-23 13:57 6.92643 122.00234 2244 ft 180 kts 276°
2026-04-23 13:57 6.92724 121.98933 2498 ft 193 kts 275°
2026-04-23 13:58 6.92816 121.97535 2764 ft 205 kts 275°
2026-04-23 13:58 6.92917 121.96046 3026 ft 218 kts 275°
2026-04-23 13:58 6.93036 121.94473 3253 ft 234 kts 278°
2026-04-23 13:58 6.93653 121.92903 3457 ft 250 kts 312°
2026-04-23 13:59 6.95122 121.91890 3761 ft 263 kts 340°
2026-04-23 13:59 6.96886 121.91266 4250 ft 270 kts 340°
2026-04-23 13:59 6.98653 121.90591 4838 ft 272 kts 340°
2026-04-23 13:59 7.00449 121.89882 5419 ft 274 kts 339°
2026-04-23 14:00 7.02241 121.89170 5981 ft 277 kts 340°
2026-04-23 14:00 7.04038 121.88457 6540 ft 278 kts 340°
2026-04-23 14:00 7.05855 121.87736 7086 ft 279 kts 340°
2026-04-23 14:00 7.07696 121.87129 7594 ft 281 kts 354°
2026-04-23 14:01 7.09640 121.87319 8117 ft 279 kts 20°
2026-04-23 14:01 7.11284 121.88326 8625 ft 281 kts 43°
2026-04-23 14:01 7.12710 121.89716 9133 ft 283 kts 44°
2026-04-23 14:01 7.14144 121.91110 9586 ft 285 kts 44°
2026-04-23 14:02 7.15582 121.92498 10027 ft 289 kts 43°
2026-04-23 14:02 7.17063 121.93920 10372 ft 296 kts 43°
2026-04-23 14:02 7.18591 121.95382 10590 ft 308 kts 43°
2026-04-23 14:02 7.20204 121.96920 10809 ft 320 kts 43°
2026-04-23 14:03 7.21877 121.98513 11017 ft 331 kts 43°
2026-04-23 14:03 7.23591 122.00146 11297 ft 339 kts 43°
2026-04-23 14:03 7.25313 122.01786 11706 ft 342 kts 43°
2026-04-23 14:03 7.27051 122.03442 12113 ft 344 kts 44°
2026-04-23 14:04 7.28802 122.05113 12513 ft 347 kts 44°
2026-04-23 14:04 7.30575 122.06806 12923 ft 349 kts 44°
2026-04-23 14:04 7.32366 122.08480 13333 ft 352 kts 40°
2026-04-23 14:04 7.34469 122.09785 13727 ft 354 kts 24°
2026-04-23 14:05 7.36869 122.10493 14147 ft 356 kts 10°
2026-04-23 14:05 7.39342 122.10803 14550 ft 357 kts
2026-04-23 14:05 7.41849 122.11070 14917 ft 360 kts
2026-04-23 14:05 7.44353 122.11334 15295 ft 362 kts
2026-04-23 14:06 7.46886 122.11603 15669 ft 363 kts
2026-04-23 14:06 7.49399 122.11875 16023 ft 365 kts
2026-04-23 14:06 7.51973 122.12155 16393 ft 367 kts
2026-04-23 14:06 7.54511 122.12434 16754 ft 368 kts
2026-04-23 14:07 7.57089 122.12718 17113 ft 370 kts
2026-04-23 14:07 7.62228 122.13287 17785 ft 373 kts
2026-04-23 14:07 7.64845 122.13577 18121 ft 375 kts
2026-04-23 14:08 7.67482 122.13870 18452 ft 376 kts
2026-04-23 14:08 7.70083 122.14158 18754 ft 378 kts
2026-04-23 14:08 7.72727 122.14450 19063 ft 380 kts
2026-04-23 14:08 7.75359 122.14742 19363 ft 382 kts
2026-04-23 14:09 7.78058 122.15041 19666 ft 384 kts
2026-04-23 14:09 7.80718 122.15337 19962 ft 386 kts
2026-04-23 14:09 7.83390 122.15633 20251 ft 387 kts
2026-04-23 14:09 7.86116 122.15936 20522 ft 389 kts
2026-04-23 14:10 7.88849 122.16238 20802 ft 392 kts
2026-04-23 14:10 7.91562 122.16539 21078 ft 393 kts
2026-04-23 14:10 7.94321 122.16845 21351 ft 395 kts
2026-04-23 14:10 7.97048 122.17149 21609 ft 397 kts
2026-04-23 14:11 7.99841 122.17458 21867 ft 400 kts
2026-04-23 14:11 8.02628 122.17767 22123 ft 402 kts
2026-04-23 14:11 8.05440 122.18078 22378 ft 403 kts
2026-04-23 14:11 8.08268 122.18391 22631 ft 405 kts
2026-04-23 14:12 8.11081 122.18703 22878 ft 407 kts
2026-04-23 14:12 8.13983 122.19026 23141 ft 409 kts
2026-04-23 14:12 8.16833 122.19343 23404 ft 411 kts
2026-04-23 14:12 8.19700 122.19662 23682 ft 412 kts
2026-04-23 14:13 8.22601 122.19984 23959 ft 414 kts
2026-04-23 14:13 8.25461 122.20303 24220 ft 415 kts
2026-04-23 14:13 8.28390 122.20629 24481 ft 417 kts
2026-04-23 14:13 8.31262 122.20949 24734 ft 419 kts
2026-04-23 14:14 8.34219 122.21278 25000 ft 420 kts
2026-04-23 14:14 8.37137 122.21603 25322 ft 419 kts
2026-04-23 14:14 8.40048 122.21927 25655 ft 418 kts
2026-04-23 14:14 8.42938 122.22249 25970 ft 417 kts
2026-04-23 14:15 8.45845 122.22573 26276 ft 417 kts
2026-04-23 14:15 8.48752 122.22897 26590 ft 416 kts
2026-04-23 14:15 8.51658 122.23222 26915 ft 416 kts
2026-04-23 14:15 8.54524 122.23542 27235 ft 416 kts
2026-04-23 14:16 8.57429 122.23867 27531 ft 416 kts
2026-04-23 14:16 8.60324 122.24191 27805 ft 418 kts
2026-04-23 14:16 8.63229 122.24515 28091 ft 419 kts
2026-04-23 14:16 8.66161 122.24842 28386 ft 420 kts
2026-04-23 14:17 8.69105 122.25171 28685 ft 421 kts
2026-04-23 14:17 8.72014 122.25496 28903 ft 423 kts
2026-04-23 14:17 8.77909 122.26154 28976 ft 423 kts
2026-04-23 14:18 8.83777 122.26810 28951 ft 423 kts
2026-04-23 14:18 8.89681 122.27466 28911 ft 423 kts
2026-04-23 14:19 8.95555 122.28120 28895 ft 423 kts
2026-04-23 14:19 9.01420 122.28775 28888 ft 423 kts
2026-04-23 14:20 9.07340 122.29436 28891 ft 423 kts
2026-04-23 14:20 9.13246 122.30098 28896 ft 423 kts
2026-04-23 14:21 9.19156 122.30760 28898 ft 423 kts
2026-04-23 14:21 9.25032 122.31418 28899 ft 423 kts
2026-04-23 14:22 9.30945 122.32080 28899 ft 423 kts
2026-04-23 14:22 9.36826 122.32739 28899 ft 423 kts
2026-04-23 14:23 9.42684 122.33396 28900 ft 422 kts
2026-04-23 14:23 9.48597 122.34059 28738 ft 422 kts
2026-04-23 14:24 9.51536 122.34389 28507 ft 420 kts
2026-04-23 14:24 9.54428 122.34713 28104 ft 419 kts
2026-04-23 14:24 9.57365 122.35043 27503 ft 422 kts
2026-04-23 14:24 9.60313 122.35375 26773 ft 427 kts
2026-04-23 14:25 9.63306 122.35712 26029 ft 431 kts
2026-04-23 14:25 9.66291 122.36048 25245 ft 432 kts
2026-04-23 14:25 9.69298 122.36386 24474 ft 431 kts
2026-04-23 14:25 9.72285 122.36721 23833 ft 427 kts
2026-04-23 14:26 9.75237 122.37051 23242 ft 421 kts
2026-04-23 14:26 9.78166 122.37376 22642 ft 416 kts
2026-04-23 14:26 9.81049 122.37698 22044 ft 412 kts
2026-04-23 14:26 9.83933 122.38021 21449 ft 408 kts
2026-04-23 14:27 9.86758 122.38338 20863 ft 404 kts
2026-04-23 14:27 9.89568 122.38653 20259 ft 403 kts
2026-04-23 14:27 9.92335 122.38963 19721 ft 399 kts
2026-04-23 14:27 9.95112 122.39275 19203 ft 395 kts
2026-04-23 14:28 9.97826 122.39701 18687 ft 389 kts 16°
2026-04-23 14:28 10.00335 122.40685 18183 ft 383 kts 28°
2026-04-23 14:28 10.02552 122.42172 17631 ft 379 kts 38°
2026-04-23 14:28 10.04644 122.43824 17151 ft 375 kts 39°
2026-04-23 14:29 10.06699 122.45474 16690 ft 371 kts 39°
2026-04-23 14:29 10.08719 122.47096 16204 ft 368 kts 39°
2026-04-23 14:29 10.10739 122.48714 15719 ft 364 kts 39°
2026-04-23 14:29 10.12763 122.50330 15230 ft 359 kts 39°
2026-04-23 14:30 10.14735 122.51904 14761 ft 356 kts 38°
2026-04-23 14:30 10.16691 122.53463 14314 ft 352 kts 38°
2026-04-23 14:30 10.18617 122.54999 13869 ft 349 kts 38°
2026-04-23 14:30 10.20532 122.56525 13423 ft 347 kts 38°
2026-04-23 14:31 10.22446 122.58051 12973 ft 344 kts 38°
2026-04-23 14:31 10.24334 122.59554 12524 ft 341 kts 38°
2026-04-23 14:31 10.26184 122.61030 12077 ft 339 kts 38°
2026-04-23 14:31 10.28047 122.62515 11624 ft 336 kts 38°
2026-04-23 14:32 10.29876 122.63974 11175 ft 332 kts 38°
2026-04-23 14:32 10.31692 122.65424 10727 ft 329 kts 39°
2026-04-23 14:32 10.33498 122.66863 10464 ft 318 kts 39°
2026-04-23 14:32 10.35201 122.68221 10318 ft 304 kts 39°
2026-04-23 14:33 10.36850 122.69537 10174 ft 291 kts 39°
2026-04-23 14:33 10.38403 122.70776 10042 ft 280 kts 39°
2026-04-23 14:33 10.39933 122.71998 9723 ft 277 kts 39°
2026-04-23 14:33 10.41466 122.73222 9349 ft 277 kts 38°
2026-04-23 14:34 10.42998 122.74445 8984 ft 275 kts 38°
2026-04-23 14:34 10.44504 122.75642 8627 ft 273 kts 37°
2026-04-23 14:34 10.46208 122.76479 8178 ft 276 kts
2026-04-23 14:34 10.48136 122.76251 7786 ft 278 kts 339°
2026-04-23 14:35 10.49746 122.75154 7418 ft 280 kts 314°
2026-04-23 14:35 10.50767 122.73484 7057 ft 281 kts 291°
2026-04-23 14:35 10.51345 122.71561 6723 ft 280 kts 288°
2026-04-23 14:35 10.51894 122.69677 6387 ft 278 kts 288°
2026-04-23 14:36 10.52459 122.67794 6049 ft 275 kts 289°
2026-04-23 14:36 10.53029 122.65939 5714 ft 273 kts 289°
2026-04-23 14:36 10.53606 122.64092 5377 ft 272 kts 289°
2026-04-23 14:36 10.54178 122.62272 5044 ft 270 kts 289°
2026-04-23 14:37 10.54748 122.60467 4714 ft 268 kts 289°
2026-04-23 14:37 10.55318 122.58669 4384 ft 265 kts 289°
2026-04-23 14:37 10.55886 122.56881 4055 ft 264 kts 289°
2026-04-23 14:37 10.56452 122.55102 3728 ft 262 kts 289°
2026-04-23 14:38 10.57009 122.53348 3406 ft 260 kts 289°
2026-04-23 14:38 10.57565 122.51592 3101 ft 258 kts 289°
2026-04-23 14:38 10.58119 122.49872 2991 ft 247 kts 292°
2026-04-23 14:38 10.58806 122.48333 2978 ft 232 kts 301°
2026-04-23 14:39 10.59631 122.46963 2995 ft 223 kts 304°
2026-04-23 14:39 10.60449 122.45685 3072 ft 204 kts 305°
2026-04-23 14:39 10.61193 122.44526 3012 ft 187 kts 305°
2026-04-23 14:39 10.61880 122.43469 2973 ft 168 kts 310°
2026-04-23 14:40 10.62754 122.42712 2976 ft 162 kts 335°
2026-04-23 14:40 10.63825 122.42389 2992 ft 159 kts 358°
2026-04-23 14:40 10.64918 122.42505 2998 ft 157 kts 19°
2026-04-23 14:40 10.65956 122.42871 3002 ft 157 kts 22°
2026-04-23 14:41 10.66987 122.43269 2999 ft 157 kts 22°
2026-04-23 14:41 10.68012 122.43662 2995 ft 157 kts 22°
2026-04-23 14:41 10.69049 122.44053 2928 ft 157 kts 22°
2026-04-23 14:41 10.70083 122.44439 2794 ft 156 kts 22°
2026-04-23 14:42 10.71103 122.44818 2533 ft 156 kts 22°
2026-04-23 14:42 10.72131 122.45198 2317 ft 153 kts 22°
2026-04-23 14:42 10.73138 122.45570 2096 ft 152 kts 22°
2026-04-23 14:42 10.74134 122.45939 1880 ft 152 kts 22°
2026-04-23 14:43 10.75136 122.46310 1670 ft 151 kts 22°
2026-04-23 14:43 10.76119 122.46674 1468 ft 151 kts 22°
2026-04-23 14:43 10.77113 122.47042 1266 ft 150 kts 22°
2026-04-23 14:43 10.78102 122.47407 1067 ft 150 kts 22°
2026-04-23 14:44 10.79086 122.47787 884 ft 149 kts 22°
2026-04-23 14:44 10.80071 122.48149 653 ft 149 kts 21°
2026-04-23 14:44 10.81049 122.48508 414 ft 148 kts 21°
2026-04-23 14:44 10.82015 122.48862 237 ft 147 kts 22°
2026-04-23 14:45 10.82947 122.49207 176 ft 119 kts 20°
2026-04-23 14:45 10.83455 122.49393 176 ft 35 kts 19°
2026-04-23 14:45 10.83549 122.49429 176 ft 6 kts 29°
2026-04-23 14:45 10.83559 122.49466 175 ft 6 kts 99°
2026-04-23 14:46 10.83546 122.49513 175 ft 7 kts 109°
2026-04-23 14:46 10.83533 122.49550 175 ft 5 kts 110°
2026-04-23 14:46 10.83518 122.49590 175 ft 6 kts 110°
2026-04-23 14:46 10.83501 122.49637 175 ft 7 kts 111°
2026-04-23 14:47 10.83463 122.49674 175 ft 8 kts 167°
2026-04-23 14:47 10.83408 122.49664 175 ft 6 kts 200°
2026-04-23 14:47 10.83358 122.49648 175 ft 7 kts 198°
2026-04-23 14:47 10.83302 122.49628 175 ft 8 kts 202°
2026-04-23 14:48 10.83243 122.49604 175 ft 8 kts 202°
2026-04-23 14:48 10.83207 122.49590 175 ft 3 kts 199°
2026-04-23 14:48 10.83187 122.49601 175 ft 4 kts 120°
2026-04-23 14:48 10.83178 122.49627 175 ft 3 kts 115°
2026-04-23 14:49 10.83169 122.49649 175 ft 3 kts 111°
2026-04-23 14:49 10.83165 122.49659 175 ft 0 kts 111°